Weather History for Toluca Jose Maria, Mexico

Change the Weather History Date:

Monday, September 30, 2013

  Actual Average Record
Temperature  
Mean Temperature 58 °F -  
Max Temperature 71 °F 67 °F 73 °F (2005)
Min Temperature 46 °F 47 °F 33 °F (2010)
Degree Days  
Heating Degree Days 6    
Growing Degree Days 8 (Base 50)    
Moisture  
Dew Point 47 °F    
Average Humidity 73    
Maximum Humidity 93    
Minimum Humidity 38    
Precipitation  
Precipitation 0.00 in - - ()
Sea Level Pressure  
Sea Level Pressure 30.19 in    
Wind  
Wind Speed 2 mph ()    
Max Wind Speed 10 mph    
Max Gust Speed -    
Visibility 5.3 miles    
Events Fog , Thunderstorm    
Averages and records for this station are not official NWS values.
T = Trace of Precipitation, MM = Missing Value Source: Averaged Metar Reports

Daily Weather History Graph

Daily Weather History Graph

Search for Another Location

Airport:

Trip Planner

Search our weather history database for the weather conditions in past years. The results will help you decide how hot, cold, wet, or windy it might be!

Date:

Astronomy

Sep. 30, 2013 Rise Set
Actual Time 7:28 AM CDT 7:27 PM CDT
Civil Twilight 7:06 AM CDT 7:49 PM CDT
Nautical Twilight 6:41 AM CDT 8:14 PM CDT
Astronomical Twilight 6:16 AM CDT 8:39 PM CDT
Moon 3:37 AM CDT (9/30) 4:32 PM CDT (9/30)
Length of Visible Light 12h 42m
Length of Day
11h 58m
Waning Crescent, 19% of the Moon is Illuminated
Sep 30
Waning Crescent
Oct 4
New
Oct 11
First Quarter
Oct 18
Full
Oct 26
Last Quarter

Hourly Weather History & Observations

Time (CDT) Temp. Dew Point Humidity Pressure Visibility Wind Dir Wind Speed Gust Speed Precip Events Conditions
12:45 AM 51.8 °F 48.2 °F 88% 29.85 in 7.0 mi Calm Calm - N/A   Scattered Clouds
1:45 AM 50.0 °F 46.4 °F 87% 30.39 in 7.0 mi Calm Calm - N/A   Scattered Clouds
2:45 AM 50.0 °F 46.4 °F 87% 30.38 in 7.0 mi SW 3.5 mph - N/A   Scattered Clouds
3:45 AM 48.2 °F 44.6 °F 87% 29.85 in 7.0 mi SW 3.5 mph - N/A   Scattered Clouds
4:45 AM 46.4 °F 44.6 °F 93% 30.36 in 7.0 mi Calm Calm - N/A   Scattered Clouds
5:45 AM 48.2 °F 44.6 °F 87% 30.36 in 5.0 mi SSE 3.5 mph - N/A   Scattered Clouds
6:45 AM 48.2 °F 44.6 °F 87% 29.88 in 2.0 mi Calm Calm - N/A   Scattered Clouds
7:08 AM 48.2 °F 44.6 °F 87% 30.37 in 1.0 mi Calm Calm - N/A Fog Fog
7:31 AM 46.4 °F 44.6 °F 93% 30.38 in 2.0 mi Calm Calm - N/A   Scattered Clouds
7:52 AM 48.2 °F 44.6 °F 87% 30.38 in 2.0 mi Calm Calm - N/A   Scattered Clouds
8:44 AM 51.8 °F 46.4 °F 82% 30.38 in 4.0 mi ENE 4.6 mph - N/A   Partly Cloudy
9:51 AM 57.2 °F 50.0 °F 77% 29.89 in 5.0 mi SE 4.6 mph - N/A   Scattered Clouds
10:46 AM 60.8 °F 48.2 °F 63% 30.40 in 6.0 mi ESE 4.6 mph - N/A   Scattered Clouds
11:43 AM 64.4 °F 46.4 °F 52% 30.39 in 6.0 mi NNE 4.6 mph - N/A   Scattered Clouds
12:50 PM 66.2 °F 44.6 °F 46% 29.81 in 6.0 mi West 3.5 mph - N/A   Scattered Clouds
1:47 PM 68.0 °F 44.6 °F 43% 30.33 in 6.0 mi South 4.6 mph - N/A   Scattered Clouds
2:44 PM 71.6 °F 44.6 °F 38% 30.30 in 6.0 mi SSE 4.6 mph - N/A   Mostly Cloudy
3:45 PM 71.6 °F 46.4 °F 41% 29.69 in 6.0 mi NW 4.6 mph - N/A   Mostly Cloudy
4:42 PM 69.8 °F 44.6 °F 40% 30.27 in 6.0 mi NW 5.8 mph - N/A   Mostly Cloudy
5:42 PM 64.4 °F 46.4 °F 52% 30.25 in 5.0 mi NNW 5.8 mph - N/A   Mostly Cloudy
6:41 PM 60.8 °F 50.0 °F 68% 29.81 in 5.0 mi SSE 8.1 mph - N/A Thunderstorm Thunderstorm
7:46 PM 57.2 °F 51.8 °F 82% 30.30 in 5.0 mi SE 10.4 mph - N/A Thunderstorm Thunderstorm
8:44 PM 55.4 °F 50.0 °F 82% 30.34 in 7.0 mi SE 3.5 mph - N/A   Scattered Clouds
9:43 PM 55.4 °F 50.0 °F 82% 29.85 in 7.0 mi WNW 6.9 mph - N/A   Scattered Clouds
10:47 PM 55.4 °F 50.0 °F 82% 30.39 in 5.0 mi NW 3.5 mph - N/A   Scattered Clouds
11:43 PM 53.6 °F 50.0 °F 88% 30.40 in 5.0 mi East 4.6 mph - N/A   Mostly Cloudy